Location: ??????
(42.0089°N, 44.3281°E)
Time: 12:23:43
(UTC+00:00)

Cosmos 304 Rocket - Pass Details

Date: 24 October 2021
Orbit: 678 x 688 km, 74.0° (Epoch: 08 December)

Event Time Altitude Azimuth Distance (km) Brightness Sun altitude
Rises 15:39:09 0° 207° (SSW) 3,022 7.5 -17.7°
Reaches altitude 10° 15:41:28 10° 211° (SSW) 2,113 6.7 -18.1°
Maximum altitude 15:46:10 62° 292° (WNW) 769 4.2 -19.0°
Drops below altitude 10° 15:50:56 10° 13° (NNE) 2,133 6.2 -19.9°
Sets 15:53:17 0° 17° (NNE) 3,055 7.0 -20.3°
